PRAHALIBU Weather Reports


Display with metric or nautical units.
time (UTC)temp
F
wind
direction
speed
MPH
gust
MPH
rain 1hr
in
rain 24hr
in
rain mn
in
humidity
%
barometer
mb
20260506081835 61 240 7.0 0.0 0.00 0.00 0.00 72
20260506071837 59 230 7.0 0.0 0.00 0.00 0.00 77
20260506061838 57 220 5.0 0.0 0.00 0.00 0.00 82
20260506042037 52 240 2.0 0.0 0.00 0.00 0.00 93
20260506031838 54 220 2.0 0.0 0.00 0.00 0.00 93
20260506021837 54 0 5.0 0.0 0.00 0.00 0.00 93
20260506011937 55 210 5.0 0.0 0.00 0.00 0.00 93
20260506001835 55 270 2.0 0.0 0.00 0.00 0.00 99
20260505231835 55 190 5.0 0.0 0.00 0.00 0.00 93
20260505221835 57 300 5.0 0.0 0.00 0.00 0.00 87
20260505211908 59 280 9.0 0.0 0.00 0.00 0.00 87
20260505201851 63 240 2.0 0.0 0.00 0.00 0.00 63
20260505191909 64 90 7.0 0.0 0.00 0.00 0.00 59
20260505181851 66 100 7.0 0.0 0.00 0.00 0.00 55
20260505171835 68 90 12.0 0.0 0.00 0.00 0.00 52
20260505161934 73 100 7.0 0.0 0.00 0.00 0.00 40
20260505151835 75 120 5.0 0.0 0.00 0.00 0.00 36
20260505121835 73 0 5.0 0.0 0.00 0.00 0.00 40
20260505111835 72 0 5.0 0.0 0.00 0.00 0.00 43
20260505101836 72 0 5.0 0.0 0.00 0.00 0.00 46
20260505091835 70 0 5.0 0.0 0.00 0.00 0.00 52